www.pogodaiklimat.ru

Погода и климат >> Архив погоды >> Французская Полинезия >> Atuona


ПОГОДА в Atuona

  • Прогноз погоды в Atuona
  • Монитор погоды в Atuona
  • Климат города

АРХИВ ПОГОДЫ в Atuona

Время (UTC), дата Ветер
(напр.,м/с)
 
Видим.   Явления Облачность Т
(С)
Тd
(С)
f
(%)
Тe
(С)
Тes
(С)
Комфортность P
(гПа)
Po
(гПа)
Тmin
(С)
Tmax
(С)
R
(мм)
R24
(мм)
S
(см)
20 20.06 В 6
{11}
30 км 3/3 700 м
[Cu med, cong]
+28.9 +23.3 72 +39 +43 очень
душно
1013.2 1007.2
19 20.06 В 5
{9}
25 км 3/3 750 м
[Cu hum]
+29.2 +23.2 70 +39 +43 очень
душно
1013.7 1007.7
21 20.06 В 5
{12}
30 км 3/3 700 м
[Cu med, cong]
+28.5 +22.7 71 +38 +43 очень
душно
1012.8 1006.8
22 20.06 В 6
{11}
30 км 4/4 750 м
[Cu med, cong]
+28.2 +22.4 71 +37 +41 очень
душно
1012.0 1006.0
23 20.06 В 4
{10}
30 км 5/5 700 м
[Cu med, cong]
+28.9 +23.3 72 +39 +44 очень
душно
1011.0 1005.0
00 21.06 В 6
{9}
30 км 4/4 750 м
[Cu med, cong]
+28.5 +22.7 71 +38 +40 очень
душно
1010.3 1004.3 +24.7
02 21.06 В 4
{9}
30 км 4/4 700 м
[Cu med, cong]
+27.1 +22.1 74 +35 +36 очень
душно
1010.6 1004.6
01 21.06 В 6
{11}
30 км 4/4 700 м
[Cu med, cong]
+27.5 +22.2 73 +36 +37 очень
душно
1010.3 1004.3
03 21.06 СВ 1 н/о н/о +26.7 +22.3 77 +35 +35 очень
душно
1011.0 1005.0
04 21.06 СЗ 1 н/о н/о +25.3 +22.4 84 +33 +33 очень
душно
1011.5 1005.5
05 21.06 СЗ 1 н/о н/о +25.1 +22.4 85 +33 +33 очень
душно
1012.2 1006.1
06 21.06 С 1 н/о н/о +25.0 +22.5 86 +33 +33 очень
душно
1012.6 1006.5
08 21.06 С 1 н/о н/о +24.7 +22.2 86 +32 +32 очень
душно
1012.8 1006.7
07 21.06 СВ 1 н/о н/о +24.7 +22.2 86 +32 +32 очень
душно
1013.0 1006.9
09 21.06 СВ 1 н/о н/о +24.8 +22.3 86 +32 +32 очень
душно
1012.8 1006.7
10 21.06 СВ 1 н/о н/о +24.5 +22.2 87 +32 +32 очень
душно
1012.3 1006.2
11 21.06 СВ 1 н/о н/о +24.3 +22.2 88 +32 +32 очень
душно
1011.9 1005.8 0.6
12 21.06 СВ 2
{5}
н/о н/о +23.6 +22.2 92 +31 +31 очень
душно
1011.3 1005.2 +29.7 0.8
14 21.06 СЗ 1 н/о н/о +23.9 +22.5 92 +31 +31 очень
душно
1011.2 1005.1
13 21.06 С 1 н/о н/о +23.5 +22.1 92 +30 +30 очень
душно
1011.0 1004.9
15 21.06 С 1
{4}
50 км 4/4 700 м
[Cu med, cong]
+24.5 +22.2 87 +32 +32 очень
душно
1011.6 1005.5
16 21.06 СЗ 2
{3}
50 км 4/4 700 м
[Cu med, cong Ac lent]
+24.3 +22.4 89 +32 +32 очень
душно
1011.7 1005.6
17 21.06 СЗ 1
{4}
50 км 9/8 630 м
[Cu med, cong Ac lent]
+25.3 +22.8 86 +33 +34 очень
душно
1012.6 1006.5
18 21.06 В 1
{10}
50 км 9/8 630 м
[Cu med, cong Ac lent]
+26.9 +23.6 82 +37 +38 очень
душно
1012.8 1006.8
20 21.06 СВ 3
{10}
50 км 6/6 540 м
[Cu Sc]
+27.4 +23.4 79 +37 +42 очень
душно
1011.9 1005.9
19 21.06 В 5
{9}
50 км 8/8 540 м
[Cu med, cong]
+26.9 +22.3 76 +35 +36 очень
душно
1012.6 1006.6
21 21.06 В 3
{11}
50 км 4/4 540 м
[Cu Sc]
+27.7 +24.5 83 +39 +47 очень
душно
1011.0 1005.0 0.2
22 21.06 В 5
{11}
50 км 4/4 540 м
[Cu Sc]
+28.1 +23.5 76 +38 +43 очень
душно
1009.7 1003.7
23 21.06 В 7
{11}
50 км 4/4 540 м
[Cu Sc]
+28.0 +24.2 80 +39 +41 очень
душно
1008.7 1002.7
00 22.06 В 4
{12}
50 км {ливн. осадки, дождь} 4/4 540 м
[Cu Sc]
+28.0 +23.2 75 +38 +41 очень
душно
1007.8 1001.8 +23.4
02 22.06 В 5
{10}
50 км 4/4 540 м
[Cu Sc]
+27.1 +23.8 82 +37 +37 очень
душно
1008.1 1002.1
01 22.06 В 6
{10}
50 км 4/4 540 м
[Cu Sc]
+27.6 +23.8 80 +38 +39 очень
душно
1007.6 1001.6
03 22.06 В 1 н/о н/о +26.8 +23.5 82 +36 +36 очень
душно
1008.8 1002.8
04 22.06 С 1 н/о н/о +25.8 +23.5 87 +35 +35 очень
душно
1009.3 1003.3
05 22.06 С 1 н/о н/о +25.1 +23.3 90 +34 +34 очень
душно
1010.1 1004.1
06 22.06 СЗ 1 н/о н/о +24.9 +23.1 90 +33 +33 очень
душно
1010.5 1004.5
08 22.06 СВ 1 н/о н/о +24.6 +22.8 90 +33 +33 очень
душно
1010.3 1004.2
07 22.06 СВ 1 н/о н/о +24.6 +22.8 90 +33 +33 очень
душно
1010.7 1004.6
09 22.06 С 1 н/о н/о +24.7 +22.6 88 +32 +32 очень
душно
1010.2 1004.1
10 22.06 СВ 1 н/о н/о +24.6 +22.7 89 +32 +32 очень
душно
1009.9 1003.8
11 22.06 СЗ 1 н/о н/о +24.5 +22.6 89 +32 +32 очень
душно
1009.4 1003.3
12 22.06 штиль 0 н/о н/о +24.8 +23.0 90 +33 +33 очень
душно
1008.9 1002.9 +29.3 +29.3
14 22.06 СЗ 1 н/о н/о +24.4 +23.5 95 +33 +33 очень
душно
1009.3 1003.3 3
13 22.06 С 1 н/о н/о +24.6 +23.4 93 +33 +33 очень
душно
1008.8 1002.8
15 22.06 С 1
{2}
50 км {ливн. осадки, дождь} 4/4 630 м
[Cu Sc]
+24.3 +23.4 95 +33 +33 очень
душно
1009.7 1003.6 3
16 22.06 штиль 0
{3}
15 км осадки на расстоянии 9/9 540 м
[Cu Sc]
+24.3 +23.4 95 +33 +33 очень
душно
1010.3 1004.2
17 22.06 СВ 1
{3}
20 км осадки на расстоянии 8/8 540 м
[Cu Sc]
+25.2 +24.3 95 +35 +36 очень
душно
1010.8 1004.8
18 22.06 С 2
{4}
4000 м слабый ливневой дождь 9/9 540 м
[Cu Sc]
+25.7 +24.8 95 +36 +37 очень
душно
1011.2 1005.2 5
20 22.06 В 2
{5}
4000 м слабый ливневой дождь 10/10 540 м
[Cu Sc]
+25.9 +24.7 93 +37 +37 очень
душно
1011.2 1005.2 1
19 22.06 СЗ 1
{4}
4000 м слабый ливневой дождь 9/9 540 м
[Cu Sc]
+25.9 +24.9 94 +37 +38 очень
душно
1011.3 1005.3 1
21 22.06 В 1
{5}
8000 м в посл. час ливневой дождь 9/9 480 м
[Cu Sc]
+25.6 +24.4 93 +36 +38 очень
душно
1010.4 1004.4 8
22 22.06 В 2
{4}
5000 м осадки на расстоянии 10/10 480 м
[Cu Sc]
+26.0 +24.0 89 +36 +36 очень
душно
1009.7 1003.7
23 22.06 В 2
{7}
50 км в посл. час ливневой дождь 9/9 480 м
[Cu Sc]
+25.5 +24.3 93 +35 +37 очень
душно
1008.4 1002.4 4
00 23.06 В 2 50 км {ливн. осадки, дождь} 9/9 480 м
[Cu Sc]
+26.7 +24.7 89 +38 +39 очень
душно
1008.2 1002.2 +24.2 4
02 23.06 СВ 1
{3}
5000 м в посл. час дождь 10/10 180 м
[Cu Sc]
+25.5 +24.5 94 +36 +36 очень
душно
1008.6 1002.6 5
01 23.06 З 2 5000 м осадки на расстоянии 9/9 480 м
[Cu Sc]
+26.0 +24.0 89 +36 +36 очень
душно
1008.2 1002.2
03 23.06 СВ 1 н/о {дождь} н/о +24.4 +23.7 96 +33 +33 очень
душно
1009.1 1003.1 36
04 23.06 С 1 н/о н/о +24.2 +23.5 96 +33 +33 очень
душно
1010.0 1003.9 4
05 23.06 С 1 н/о н/о +24.1 +23.2 95 +32 +32 очень
душно
1010.5 1004.4
06 23.06 СВ 1 н/о н/о +24.2 +23.3 95 +32 +32 очень
душно
1010.7 1004.6 4
08 23.06 С 2 н/о н/о +24.2 +23.3 95 +32 +32 очень
душно
1011.4 1005.3 5
07 23.06 СЗ 1
{4}
н/о н/о +24.2 +23.3 95 +32 +32 очень
душно
1011.0 1004.9 0.0
09 23.06 СВ 1 н/о н/о +24.0 +23.1 95 +32 +32 очень
душно
1011.1 1005.0 15
10 23.06 СЗ 1 н/о н/о +23.6 +22.9 96 +31 +31 очень
душно
1011.9 1005.8 27
11 23.06 С 1 н/о н/о +23.1 +22.6 97 +32 +32 очень
душно
1011.2 1005.1 13
12 23.06 СЗ 1 н/о н/о +23.2 +22.7 97 +32 +32 очень
душно
1010.5 1004.4 +26.7 +26.7 57
14 23.06 С 1 н/о н/о +23.3 +22.8 97 +32 +32 очень
душно
1010.2 1004.1 0.2
13 23.06 С 1 н/о н/о +23.2 +22.7 97 +32 +32 очень
душно
1009.9 1003.8 2
15 23.06 С 2
{5}
8000 м осадки на расстоянии 10/8 330 м
[Cb calv Ac trans]
+23.3 +22.8 97 +32 +32 очень
душно
1010.4 1004.3 2
16 23.06 С 2
{3}
н/о н/о +23.3 +22.5 95 +32 +32 очень
душно
1011.0 1004.9
17 23.06 СВ 2
{4}
н/о н/о +24.0 +22.8 93 +32 +32 очень
душно
1012.1 1006.0
18 23.06 СВ 2
{3}
15 км {ливн. осадки, дождь} 9/5 600 м
[Cu Sc Ac lent Ci sp]
+24.7 +23.5 93 +33 +35 очень
душно
1012.3 1006.2
20 23.06 С 1
{3}
н/о н/о +26.8 +24.8 89 +38 +38 очень
душно
1012.4 1006.4
19 23.06 З 1
{4}
20 км 9/5 600 м
[Cu Sc Ac lent Ci sp]
+25.5 +23.9 91 +35 +39 очень
душно
1012.9 1006.9
21 23.06 штиль 0
{2}
25 км 9/4 600 м
[Cu Sc Ac lent Ci sp]
+27.7 +24.1 81 +39 +46 очень
душно
1011.9 1005.9
22 23.06 В 2 н/о н/о +27.6 +23.8 80 +38 +38 очень
душно
1011.2 1005.2
23 23.06 В 2
{7}
15 км осадки на расстоянии 9/5 600 м
[Cu Sc Ac lent Ci sp]
+28.6 +24.2 77 +40 +44 очень
душно
1010.5 1004.5
00 24.06 В 6 30 км 9/4 600 м
[Cu Sc Ac lent Ci sp]
+27.6 +24.4 83 +39 +40 очень
душно
1010.1 1004.1 +23.1
02 24.06 СВ 2
{9}
30 км 9/4 600 м
[Cu Sc Ac lent Ci sp]
+26.8 +24.1 85 +37 +38 очень
душно
1010.2 1004.2
01 24.06 В 6
{9}
30 км 9/4 600 м
[Cu Sc Ac lent Ci sp]
+27.2 +23.9 82 +37 +38 очень
душно
1009.7 1003.7
03 24.06 СЗ 1 н/о н/о +25.5 +23.6 89 +35 +35 очень
душно
1011.0 1005.0
04 24.06 СВ 1 н/о н/о +25.2 +23.8 92 +34 +34 очень
душно
1011.8 1005.8
05 24.06 С 1 н/о н/о +24.6 +23.2 92 +33 +33 очень
душно
1012.4 1006.3
06 24.06 С 1 н/о н/о +24.3 +23.1 93 +32 +32 очень
душно
1012.8 1006.7
08 24.06 штиль 0 н/о н/о +24.5 +23.1 92 +33 +33 очень
душно
1013.0 1006.9
07 24.06 С 1 н/о н/о +24.4 +23.0 92 +32 +32 очень
душно
1013.2 1007.1 0.2
09 24.06 С 1 н/о н/о +24.6 +23.6 94 +33 +33 очень
душно
1012.8 1006.7 0.4
10 24.06 СЗ 1 н/о н/о +24.4 +23.5 95 +33 +33 очень
душно
1012.8 1006.7
11 24.06 С 1 н/о н/о +24.3 +23.4 95 +33 +33 очень
душно
1012.4 1006.3 2
12 24.06 СЗ 1 н/о н/о +24.2 +23.5 96 +33 +33 очень
душно
1012.1 1006.0 +28.6 +28.6 2
14 24.06 штиль 0 н/о н/о +23.7 +22.9 95 +31 +31 очень
душно
1012.0 1005.9
13 24.06 штиль 0 н/о н/о +23.9 +23.0 95 +32 +32 очень
душно
1011.6 1005.5
15 24.06 СВ 1
{3}
30 км 4/4 630 м
[Cu Sc]
+23.7 +22.7 94 +31 +31 очень
душно
1012.3 1006.2
16 24.06 С 2
{3}
30 км 4/4 630 м
[Cu Sc]
+23.7 +22.9 95 +31 +32 очень
душно
1012.8 1006.7
17 24.06 С 1
{3}
15 км осадки на расстоянии 4/4 600 м
[Cu Sc]
+25.8 +24.2 91 +36 +38 очень
душно
1013.6 1007.6
18 24.06 В 2
{4}
30 км 4/4 630 м
[Cu med, cong]
+28.1 +23.0 74 +38 +42 очень
душно
1013.9 1007.9
20 24.06 В 7
{11}
30 км 3/3 630 м
[Cu med, cong]
+28.3 +22.8 72 +38 +41 очень
душно
1013.3 1007.3
19 24.06 В 5
{9}
30 км 3/3 630 м
[Cu med, cong]
+28.8 +23.0 71 +39 +43 очень
душно
1013.8 1007.8
21 24.06 В 6
{10}
30 км 3/3 630 м
[Cu med, cong]
+28.7 +23.6 74 +39 +43 очень
душно
1012.9 1006.9
22 24.06 В 5
{9}
30 км 3/3 630 м
[Cu med, cong]
+28.6 +23.1 72 +38 +44 очень
душно
1012.3 1006.3
23 24.06 В 5
{9}
35 км 1/1 700 м
[Cu hum]
+28.5 +22.5 70 +37 +43 очень
душно
1011.6 1005.6
00 25.06 В 4
{8}
35 км 1/1 700 м
[Cu hum]
+28.4 +22.4 70 +37 +43 очень
душно
1011.0 1005.0 +23.6
02 25.06 В 3
{8}
35 км 1/1 700 м
[Cu hum]
+27.0 +22.0 74 +35 +36 очень
душно
1010.8 1004.8
01 25.06 В 4
{7}
35 км 1/1 700 м
[Cu hum]
+27.5 +22.2 73 +36 +39 очень
душно
1010.7 1004.7
03 25.06 В 1 н/о н/о +26.9 +22.3 76 +35 +35 очень
душно
1011.3 1005.3
04 25.06 З 1 н/о н/о +26.0 +22.5 81 +34 +34 очень
душно
1012.0 1006.0
05 25.06 СЗ 1 н/о н/о +25.2 +22.7 86 +33 +33 очень
душно
1012.7 1006.6
06 25.06 СЗ 1 н/о н/о +24.8 +22.9 89 +33 +33 очень
душно
1013.1 1007.0
08 25.06 СЗ 1 н/о н/о +24.7 +23.1 91 +33 +33 очень
душно
1013.5 1007.4
07 25.06 СЗ 1 н/о н/о +24.9 +23.0 89 +33 +33 очень
душно
1013.5 1007.4
09 25.06 СВ 1 н/о н/о +24.7 +22.8 89 +33 +33 очень
душно
1013.4 1007.3
10 25.06 С 1 н/о н/о +24.4 +22.3 88 +32 +32 очень
душно
1013.1 1007.0
11 25.06 СВ 1 н/о н/о +23.8 +22.2 91 +31 +31 очень
душно
1012.8 1006.7
12 25.06 С 1 н/о н/о +23.5 +21.8 90 +30 +30 очень
душно
1012.3 1006.2 +29.3 +29.3
14 25.06 С 1 н/о н/о +23.7 +22.3 92 +31 +31 очень
душно
1012.6 1006.5
13 25.06 С 1 н/о н/о +23.5 +21.8 90 +30 +30 очень
душно
1012.1 1006.0
15 25.06 С 2
{4}
30 км в посл. час ливневой дождь 3/3 600 м
[Cu med, cong]
+23.2 +22.0 93 +32 +32 очень
душно
1013.0 1006.9 0.2
16 25.06 штиль 0
{3}
30 км 4/4 600 м
[Cu Sc]
+23.4 +22.0 92 +32 +32 очень
душно
1013.4 1007.3
17 25.06 С 1
{3}
н/о н/о +25.6 +22.7 84 +34 +34 очень
душно
1014.3 1008.2
18 25.06 В 4
{7}
30 км 4/4 750 м
[Cu med, cong]
+28.6 +23.1 72 +38 +41 очень
душно
1014.6 1008.6
20 25.06 В 7
{11}
30 км 1/1 800 м
[Cu hum]
+28.2 +22.4 71 +37 +40 очень
душно
1013.8 1007.8
19 25.06 В 7
{11}
30 км 1/1 800 м
[Cu hum]
+28.6 +21.9 67 +37 +40 очень
душно
1014.4 1008.4
21 25.06 В 7
{12}
30 км 1/1 800 м
[Cu hum]
+28.4 +21.7 67 +36 +40 очень
душно
1013.3 1007.3
22 25.06 В 9
{13}
30 км 1/1 800 м
[Cu hum]
+27.6 +21.9 71 +36 +37 очень
душно
1012.3 1006.3
23 25.06 В 6
{12}
30 км 3/3 750 м
[Cu med, cong]
+28.2 +21.7 68 +36 +39 очень
душно
1011.6 1005.6
00 26.06 В 4
{11}
30 км 4/4 750 м
[Cu med, cong]
+28.3 +22.3 70 +37 +40 очень
душно
1011.3 1005.3 +23.2
02 26.06 В 3
{8}
30 км 4/4 700 м
[Cu med, cong]
+27.3 +22.3 74 +36 +36 очень
душно
1011.4 1005.4
01 26.06 В 4
{10}
30 км 4/4 750 м
[Cu med, cong]
+27.4 +22.1 73 +36 +37 очень
душно
1011.2 1005.2
03 26.06 В 2 н/о н/о +27.0 +22.4 76 +35 +35 очень
душно
1011.7 1005.7
04 26.06 В 1 н/о н/о +26.9 +22.3 76 +35 +35 очень
душно
1012.3 1006.3
05 26.06 В 2 н/о н/о +27.0 +22.4 76 +35 +35 очень
душно
1012.7 1006.7
06 26.06 В 2 н/о н/о +26.9 +22.1 75 +35 +35 очень
душно
1013.3 1007.3
08 26.06 СЗ 1 н/о н/о +26.3 +21.9 77 +34 +34 очень
душно
1013.5 1007.5
07 26.06 В 2 н/о н/о +26.7 +21.9 75 +34 +34 очень
душно
1013.4 1007.4
09 26.06 С 1 н/о н/о +25.6 +21.9 80 +33 +33 очень
душно
1013.5 1007.4
10 26.06 СВ 1 н/о н/о +24.9 +21.8 83 +32 +32 очень
душно
1013.4 1007.3
11 26.06 В 2 н/о н/о +26.2 +21.6 76 +34 +34 очень
душно
1012.9 1006.9
12 26.06 СЗ 1 н/о н/о +24.9 +21.8 83 +32 +32 очень
душно
1012.5 1006.4 +28.9 +28.9
14 26.06 СВ 1 н/о н/о +25.1 +21.6 81 +32 +32 очень
душно
1012.7 1006.6
13 26.06 В 2 н/о н/о +25.3 +21.8 81 +33 +33 очень
душно
1012.5 1006.4
15 26.06 СВ 1
{8}
25 км 8/8 600 м
[Cu Sc]
+24.9 +21.6 82 +32 +32 очень
душно
1013.0 1006.9
16 26.06 СВ 2
{5}
30 км 4/4 630 м
[Cu Sc]
+25.0 +21.5 81 +32 +32 очень
душно
1013.4 1007.3
17 26.06 С 1
{5}
30 км 5/5 700 м
[Cu med, cong]
+26.6 +22.2 77 +35 +36 очень
душно
1014.0 1008.0
18 26.06 В 4
{8}
30 км 4/4 750 м
[Cu med, cong]
+28.3 +22.1 69 +37 +39 очень
душно
1014.4 1008.4
20 26.06 В 7
{12}
30 км 3/3 800 м
[Cu hum]
+28.5 +21.8 67 +37 +40 очень
душно
1014.1 1008.1
19 26.06 В 4
{9}
30 км 3/3 750 м
[Cu med, cong]
+28.9 +21.7 65 +37 +42 очень
душно
1014.4 1008.4
21 26.06 В 6
{12}
30 км 3/3 800 м
[Cu hum]
+28.2 +22.4 71 +37 +41 очень
душно
1013.7 1007.7
22 26.06 В 5
{11}
30 км 4/4 750 м
[Cu med, cong]
+27.9 +22.2 71 +36 +41 очень
душно
1013.0 1007.0
23 26.06 В 6
{10}
30 км 4/4 750 м
[Cu med, cong]
+28.3 +22.3 70 +37 +40 очень
душно
1012.0 1006.0
00 27.06 В 8
{12}
30 км 3/3 750 м
[Cu med, cong]
+27.7 +21.7 70 +36 +37 очень
душно
1011.5 1005.5 +24.7
02 27.06 В 4
{9}
30 км 4/4 750 м
[Cu med, cong]
+27.2 +21.5 71 +35 +35 очень
душно
1011.6 1005.6
01 27.06 В 5
{11}
30 км 3/3 750 м
[Cu med, cong]
+27.5 +22.0 72 +36 +37 очень
душно
1011.5 1005.5
03 27.06 В 3 н/о н/о +27.1 +22.1 74 +35 +35 очень
душно
1012.1 1006.1
04 27.06 В 2 н/о н/о +26.1 +22.6 81 +34 +34 очень
душно
1012.4 1006.4
05 27.06 СЗ 1 н/о н/о +25.0 +22.7 87 +33 +33 очень
душно
1013.1 1007.0
06 27.06 С 1 н/о н/о +24.6 +22.7 89 +32 +32 очень
душно
1013.6 1007.5
08 27.06 В 1 н/о н/о +25.1 +22.0 83 +32 +32 очень
душно
1013.5 1007.4
07 27.06 СВ 1 н/о н/о +24.5 +22.4 88 +32 +32 очень
душно
1013.7 1007.6
09 27.06 В 2 н/о н/о +25.6 +22.3 82 +33 +33 очень
душно
1013.3 1007.2
10 27.06 В 2 н/о н/о +25.9 +22.0 79 +33 +33 очень
душно
1012.8 1006.8
11 27.06 В 2 н/о н/о +26.1 +21.7 77 +34 +34 очень
душно
1012.3 1006.3
12 27.06 СВ 1 н/о н/о +25.7 +21.6 78 +33 +33 очень
душно
1011.7 1005.7 +29.1 +29.1
14 27.06 ЮЗ 1 н/о н/о +24.3 +22.0 87 +31 +31 очень
душно
1011.7 1005.6
13 27.06 С 1 н/о н/о +24.1 +21.8 87 +31 +31 очень
душно
1011.5 1005.4
15 27.06 Ю 1
{4}
25 км 4/3 630 м
[Cu med, cong Ci fib]
+25.0 +21.7 82 +32 +32 очень
душно
1011.8 1005.7
16 27.06 ЮВ 4
{7}
30 км 4/4 630 м
[Cu med, cong]
+26.0 +21.2 75 +33 +33 очень
душно
1012.4 1006.4
17 27.06 В 1
{8}
30 км 3/3 630 м
[Cu med, cong]
+26.9 +21.2 71 +34 +36 очень
душно
1013.2 1007.2
18 27.06 ЮВ 3
{7}
30 км 4/4 630 м
[Cu med, cong]
+27.2 +21.9 73 +35 +38 очень
душно
1013.7 1007.7
19 27.06 В 5
{9}
н/о н/о +27.2 +21.7 72 +35 +35 очень
душно
1013.8 1007.8

 

Местоположение метеостанции Atuona (Французская Полинезия): широта -9.80 долгота -139.00 высота над уровнем моря 53 м.

В архиве по умолчанию представлена погода в Atuona за последнюю неделю. Архивные данные за месяц целиком и за предыдущие месяцы, начиная с января 2011 года, Вы можете получить, выбрав интересующий диапазон дат из раскрывающегося списка и нажав кнопку "Ввод!".

Внимание! Время в таблицах - всемирное. Для получения местного времени необходимо прибавить поправку, которая в Atuona равна -10 ч.

Смотрите также архив погоды в соседних городах и на ближайших метеорологических станциях:

Погода в Takaroa (Французская Полинезия) (834 км)
Погода в Hao (Французская Полинезия) (941 км)
Погода в Hereheretue (Французская Полинезия) (1295 км)
Погода в Tahiti-Faaa (Французская Полинезия) (1433 км)
Погода в Rikitea (Французская Полинезия) (1545 км)
Погода в Bora-Bora Airport (Французская Полинезия) (1560 км)
Погода в Tubuai (Французская Полинезия) (1869 км)
Погода в Pitcairn Island C (Питкерн) (1942 км)
Погода в Rapa (Французская Полинезия) (2057 км)
Погода в Penrhyn (Кука Острова) (2086 км)

Пояснения к столбцам:

Ветер - указаны скорость ветра в м/с - средняя за 10 мин, порывы в срок и между сроками (в фигурных скобках) и направление, откуда дует ветер: С - северный, СВ - северо-восточный, В - восточный, ЮВ - юго-восточный, Ю - южный, ЮЗ - юго-западный, З - западный, СЗ - северо-западный.
Видимость - горизонтальная дальность видимости в метрах или километрах. При видимости от 1 до 10 км при отсутствии осадков обычно наблюдается дымка, при ухудшении видимости до 1 км и менее - туман. В сухую погоду видимость может ухудшаться дымом, пылью или мглою.
Явления - указаны атмосферные явления, наблюдавшиеся в срок или в последний час перед сроком; фигурными скобками обозначены явления, наблюдавшиеся между сроками (за 1-3 часа до срока); квадратными скобками обозначены град или гололедные отложения с указанием их диаметра в мм.
Облачность - указаны через наклонную черту общая и нижняя облачность в баллах и высота нижней границы облаков в метрах; квадратными скобками обозначены формы облаков: Ci - перистые, Cs - перисто-слоистые, Cc - перисто-кучевые, Ac - высококучевые, As - высокослоистые, Sc - слоисто-кучевые, Ns - слоисто-дождевые, Cu - кучевые, Cb - кучево-дождевые. Подробнее классификацию облаков см. в Атласе облаков (PDF).
T - Температура воздуха - температура, измеренная на высоте 2 м над землей.
Td - Температура точки росы - температура, при понижении до которой содержащийся в воздухе водяной пар достигнет насыщения.
f - Относительная влажность воздуха - влажноcть воздуха, измеренная на высоте 2 м над землей.
Te - Эффективная температура - температура, которую ощущает одетый по сезону человек в тени. Характеристика душности погоды. При расчете учитывается влияние влажности воздуха и скорости ветра на теплоощущения человека.
Tes - Эффективная температура на солнце - температура, которую ощущает человек, с поправкой на солнечный нагрев. Характеристика знойности погоды. Зависит от высоты солнца над горизонтом, облачности и скорости ветра. Ночью, в пасмурную погоду, а также при ветре 12 м/с и более поправка равна нулю.
P - Атмосферное давление - приведенное к уровню моря атмосферное давление.
Po - Атмосферное давление - измеренное на уровне метеостанции атмосферное давление.
Tmin - Минимальная температура - минимум температуры воздуха на высоте 2 м над землей.
Tmax - Максимальная температура - максимум температуры воздуха на высоте 2 м над землей.
R - Количество осадков - Количество выпавших осадков за период времени, мм. При наведении курсора мыши на число - период времени, за который выпало указанное количество осадков.
R24 - Количество осадков - Количество выпавших осадков за 24 часа, мм.
S - Снежный покров - Высота снежного покрова, см. При наведении курсора мыши на число - состояние снежного покрова и степень покрытия местности в баллах.